This is the latest recevied weather packets stored in our database for station/object S57PNX-8. If no packets are shown the sender has not sent any weather packets the latest 10 day(s).
| Time | Temp. | Humidity | Pressure | Rain* | Wind** | Luminosity | Snow |
|---|---|---|---|---|---|---|---|
| 1777975756 | 11.67° C | 91% | 1020.5 hPa | - | - | - | - |
| 1777974857 | 11.67° C | 98% | 1020.6 hPa | - | - | - | - |
| 1777973952 | 11.67° C | 97% | 1020.7 hPa | - | - | - | - |
| 1777973050 | 11.67° C | 95% | 1020.7 hPa | - | - | - | - |
| 1777972150 | 11.67° C | 89% | 1020.7 hPa | - | - | - | - |
| 1777971248 | 11.67° C | 84% | 1020.5 hPa | - | - | - | - |
| 1777970348 | 12.22° C | 80% | 1020.5 hPa | - | - | - | - |
| 1777969448 | 12.22° C | 78% | 1020.3 hPa | - | - | - | - |
| 1777968550 | 12.22° C | 74% | 1020.3 hPa | - | - | - | - |
| 1777967646 | 12.22° C | 73% | 1020.3 hPa | - | - | - | - |
| 1777966746 | 12.78° C | 69% | 1020 hPa | - | - | - | - |
| 1777965846 | 12.78° C | 69% | 1020.1 hPa | - | - | - | - |
| 1777964945 | 12.22° C | 67% | 1020 hPa | - | - | - | - |
| 1777964046 | 12.22° C | 66% | 1020 hPa | - | - | - | - |
| 1777963148 | 12.22° C | 65% | 1020 hPa | - | - | - | - |
| 1777962245 | 11.67° C | 64% | 1020 hPa | - | - | - | - |
| 1777961344 | 11.67° C | 63% | 1019.8 hPa | - | - | - | - |
| 1777960444 | 11.67° C | 61% | 1019.8 hPa | - | - | - | - |
| 1777959543 | 11.67° C | 61% | 1019.8 hPa | - | - | - | - |
| 1777958644 | 11.11° C | 61% | 1019.8 hPa | - | - | - | - |
| 1777957745 | 11.11° C | 60% | 1019.8 hPa | - | - | - | - |
| 1777955943 | 11.11° C | 59% | 1019.6 hPa | - | - | - | - |
| 1777955076 | 11.11° C | 59% | 1019.6 hPa | - | - | - | - |
| 1777955043 | 11.11° C | 59% | 1019.6 hPa | - | - | - | - |
| 1777954143 | 11.11° C | 58% | 1019.5 hPa | - | - | - | - |
* Rain since midnight (hover to see other rain measurements)
** Current wind speed in m/s (hover to see current wind gust speed)